ETH834 FYWH-HAAB

Flight info

Callsign ETH834
Flight time N/A
Altitude 37000
Route VEDRY UM437 IBKIN UQ83 LUB UR784 XALEM/N0488F390 UR784 MV UT146 AKUMU UN554 RUDOL RUDOL1A
Aircraft A359/H-SPCMNB2ABCDEFGHIJLMNOP/LB1D1

Departure

Time 2026-04-26 16:43
Airport Hosea Kutako International Airport (FYWH)

Arrival

Time N/A
Airport Addis Ababa Bole International Airport (HAAB)
Time Latitude Longitude Altitude Speed Heading
2026-04-26 16:00 -22.48557 17.46333 5575 ft 0 kts 296°
2026-04-26 16:15 -22.48557 17.46334 5575 ft 0 kts 296°
2026-04-26 16:31 -22.48558 17.46334 5575 ft 0 kts 296°
2026-04-26 16:34 -22.48554 17.46327 5573 ft 8 kts 299°
2026-04-26 16:35 -22.48501 17.46303 5574 ft 2 kts 13°
2026-04-26 16:35 -22.48456 17.46354 5575 ft 16 kts 55°
2026-04-26 16:35 -22.48389 17.46494 5572 ft 26 kts 64°
2026-04-26 16:35 -22.48296 17.46703 5571 ft 35 kts 64°
2026-04-26 16:36 -22.48177 17.46965 5568 ft 43 kts 63°
2026-04-26 16:36 -22.48035 17.47268 5568 ft 48 kts 63°
2026-04-26 16:36 -22.47877 17.47610 5558 ft 49 kts 63°
2026-04-26 16:36 -22.47759 17.47860 5550 ft 0 kts 60°
2026-04-26 16:37 -22.47717 17.47909 5549 ft 13 kts 33°
2026-04-26 16:37 -22.47691 17.47910 5548 ft 9 kts 347°
2026-04-26 16:37 -22.47629 17.47909 5548 ft 7 kts 30°
2026-04-26 16:37 -22.47570 17.48019 5548 ft 28 kts 64°
2026-04-26 16:38 -22.47453 17.48272 5536 ft 46 kts 63°
2026-04-26 16:38 -22.47314 17.48573 5524 ft 51 kts 64°
2026-04-26 16:38 -22.47227 17.48815 5514 ft 0 kts 103°
2026-04-26 16:38 -22.47259 17.48863 5512 ft 19 kts 126°
2026-04-26 16:39 -22.47277 17.48911 5510 ft 3 kts 85°
2026-04-26 16:39 -22.47246 17.48956 5508 ft 7 kts 28°
2026-04-26 16:39 -22.47198 17.48954 5508 ft 7 kts 336°
2026-04-26 16:39 -22.47168 17.48925 5509 ft 5 kts 301°
2026-04-26 16:40 -22.47172 17.48881 5511 ft 5 kts 242°
2026-04-26 16:40 -22.47173 17.48879 5511 ft 0 kts 242°
2026-04-26 16:41 -22.47183 17.48860 5511 ft 17 kts 242°
2026-04-26 16:42 -22.47318 17.48560 5524 ft 72 kts 245°
2026-04-26 16:42 -22.47619 17.47892 5552 ft 122 kts 244°
2026-04-26 16:42 -22.48062 17.46925 5569 ft 165 kts 244°
2026-04-26 16:42 -22.48621 17.45723 5770 ft 185 kts 244°
2026-04-26 16:43 -22.49252 17.44542 6548 ft 181 kts 242°
2026-04-26 16:43 -22.49927 17.43352 6981 ft 190 kts 242°
2026-04-26 16:43 -22.50580 17.42126 7411 ft 188 kts 245°
2026-04-26 16:43 -22.51098 17.40844 7831 ft 181 kts 251°
2026-04-26 16:44 -22.51572 17.39616 8189 ft 178 kts 250°
2026-04-26 16:44 -22.52108 17.38370 8366 ft 189 kts 246°
2026-04-26 16:44 -22.53011 17.37233 8426 ft 208 kts 222°
2026-04-26 16:44 -22.54405 17.36620 8438 ft 231 kts 191°
2026-04-26 16:45 -22.56035 17.36860 8397 ft 253 kts 158°
2026-04-26 16:45 -22.57572 17.37878 8605 ft 265 kts 144°
2026-04-26 16:45 -22.59113 17.39068 8809 ft 279 kts 144°
2026-04-26 16:45 -22.60767 17.40316 9009 ft 293 kts 146°
2026-04-26 16:46 -22.62450 17.41549 9364 ft 299 kts 146°
2026-04-26 16:46 -22.64207 17.42821 9837 ft 302 kts 146°
2026-04-26 16:46 -22.65968 17.44087 10271 ft 305 kts 146°
2026-04-26 16:46 -22.67721 17.45348 10697 ft 307 kts 146°
2026-04-26 16:47 -22.69501 17.46631 11133 ft 308 kts 147°
2026-04-26 16:47 -22.71319 17.47936 11600 ft 310 kts 147°
2026-04-26 16:47 -22.72948 17.49118 11998 ft 312 kts 146°
2026-04-26 16:47 -22.74582 17.50709 12383 ft 315 kts 130°
2026-04-26 16:48 -22.75744 17.52761 12599 ft 325 kts 117°
2026-04-26 16:48 -22.76532 17.55059 12705 ft 337 kts 103°
2026-04-26 16:48 -22.76590 17.57632 12771 ft 348 kts 79°
2026-04-26 16:48 -22.75693 17.60089 12885 ft 357 kts 56°
2026-04-26 16:49 -22.73972 17.62047 12991 ft 365 kts 34°
2026-04-26 16:49 -22.71706 17.63325 13167 ft 371 kts 20°
2026-04-26 16:49 -22.69239 17.64224 13356 ft 378 kts 15°
2026-04-26 16:49 -22.66699 17.65056 13507 ft 386 kts 15°
2026-04-26 16:50 -22.64116 17.65966 13739 ft 392 kts 18°
2026-04-26 16:50 -22.61553 17.66989 14013 ft 396 kts 20°
2026-04-26 16:50 -22.58990 17.68118 14296 ft 399 kts 21°
2026-04-26 16:50 -22.56432 17.69329 14580 ft 402 kts 22°
2026-04-26 16:51 -22.53880 17.70583 14866 ft 404 kts 23°
2026-04-26 16:51 -22.51326 17.71859 15144 ft 406 kts 23°
2026-04-26 16:51 -22.48751 17.73141 15450 ft 408 kts 23°
2026-04-26 16:51 -22.46173 17.74414 15730 ft 410 kts 23°
2026-04-26 16:52 -22.43568 17.75691 16027 ft 412 kts 23°
2026-04-26 16:52 -22.41834 17.76537 16206 ft 413 kts 23°
2026-04-26 16:52 -22.38308 17.78250 16577 ft 416 kts 23°
2026-04-26 16:52 -22.35662 17.79536 16857 ft 418 kts 23°
2026-04-26 16:53 -22.33006 17.80827 17134 ft 420 kts 23°
2026-04-26 16:53 -22.30328 17.82125 17406 ft 423 kts 23°
2026-04-26 16:53 -22.27647 17.83423 17700 ft 424 kts 23°
2026-04-26 16:53 -22.24945 17.84728 17992 ft 426 kts 23°
2026-04-26 16:54 -22.22231 17.86040 18259 ft 428 kts 23°
2026-04-26 16:54 -22.19512 17.87355 18502 ft 430 kts 23°
2026-04-26 16:54 -22.16770 17.88681 18721 ft 432 kts 23°
2026-04-26 16:54 -22.14019 17.90011 18938 ft 435 kts 23°
2026-04-26 16:55 -22.11244 17.91353 19158 ft 437 kts 23°
2026-04-26 16:55 -22.08469 17.92695 19375 ft 439 kts 23°
2026-04-26 16:55 -22.05676 17.94044 19586 ft 441 kts 23°
2026-04-26 16:55 -22.02879 17.95395 19797 ft 443 kts 23°
2026-04-26 16:56 -21.97228 17.98122 20213 ft 446 kts 22°
2026-04-26 16:56 -21.94384 17.99493 20411 ft 448 kts 22°
2026-04-26 16:56 -21.91529 18.00869 20633 ft 450 kts 23°
2026-04-26 16:57 -21.88662 18.02250 20820 ft 452 kts 22°
2026-04-26 16:57 -21.85788 18.03635 21008 ft 454 kts 22°
2026-04-26 16:57 -21.80033 18.06520 21403 ft 458 kts 26°
2026-04-26 16:58 -21.77217 18.08159 21606 ft 460 kts 28°
2026-04-26 16:58 -21.76273 18.08731 21668 ft 461 kts 28°
2026-04-26 16:58 -21.68822 18.13299 22164 ft 466 kts 28°
2026-04-26 16:59 -21.65990 18.14999 22343 ft 467 kts 28°
2026-04-26 16:59 -21.60265 18.18379 22718 ft 471 kts 27°
2026-04-26 17:00 -21.54492 18.21744 23051 ft 474 kts 27°
2026-04-26 17:00 -21.48665 18.25134 23383 ft 478 kts 27°
2026-04-26 17:00 -21.45744 18.26836 23553 ft 479 kts 27°
2026-04-26 17:01 -21.42843 18.28526 23704 ft 481 kts 27°
2026-04-26 17:01 -21.39899 18.30242 23849 ft 482 kts 27°
2026-04-26 17:01 -21.36950 18.31960 24002 ft 483 kts 27°
2026-04-26 17:01 -21.33990 18.33684 24142 ft 484 kts 27°
2026-04-26 17:02 -21.31033 18.35406 24284 ft 485 kts 27°
2026-04-26 17:02 -21.28066 18.37132 24412 ft 487 kts 27°
2026-04-26 17:02 -21.25081 18.38868 24554 ft 488 kts 27°
2026-04-26 17:02 -21.22099 18.40601 24695 ft 489 kts 27°
2026-04-26 17:03 -21.19107 18.42338 24825 ft 490 kts 27°
2026-04-26 17:03 -21.16097 18.44086 24957 ft 491 kts 27°
2026-04-26 17:03 -21.13091 18.45831 25077 ft 492 kts 27°
2026-04-26 17:03 -21.10086 18.47574 25213 ft 493 kts 27°
2026-04-26 17:04 -21.07058 18.49330 25346 ft 494 kts 27°
2026-04-26 17:04 -21.04034 18.51083 25476 ft 495 kts 27°
2026-04-26 17:04 -21.02024 18.52248 25565 ft 496 kts 27°
2026-04-26 17:04 -20.97960 18.54601 25717 ft 498 kts 27°
2026-04-26 17:05 -20.94909 18.56367 25861 ft 499 kts 27°
2026-04-26 17:05 -20.91859 18.58131 25979 ft 500 kts 27°
2026-04-26 17:05 -20.88795 18.59904 26111 ft 501 kts 27°
2026-04-26 17:05 -20.85725 18.61678 26249 ft 502 kts 27°
2026-04-26 17:06 -20.82656 18.63449 26385 ft 502 kts 27°
2026-04-26 17:06 -20.79568 18.65226 26502 ft 504 kts 27°
2026-04-26 17:06 -20.76488 18.67004 26623 ft 505 kts 27°
2026-04-26 17:06 -20.73393 18.68792 26750 ft 505 kts 27°
2026-04-26 17:07 -20.70295 18.70581 26885 ft 506 kts 27°
2026-04-26 17:07 -20.68242 18.71765 26963 ft 507 kts 27°
2026-04-26 17:07 -20.65137 18.73555 27087 ft 508 kts 27°
2026-04-26 17:07 -20.62024 18.75348 27214 ft 509 kts 27°
2026-04-26 17:08 -20.57855 18.77748 27373 ft 510 kts 27°
2026-04-26 17:08 -20.54768 18.79524 27510 ft 511 kts 27°
2026-04-26 17:08 -20.51601 18.81345 27640 ft 512 kts 27°
2026-04-26 17:08 -20.49524 18.82539 27714 ft 512 kts 27°
2026-04-26 17:09 -20.45361 18.84930 27892 ft 513 kts 27°
2026-04-26 17:09 -20.44300 18.85539 27939 ft 513 kts 27°
2026-04-26 17:09 -20.39071 18.88541 28137 ft 515 kts 27°
2026-04-26 17:09 -20.35911 18.90355 28257 ft 516 kts 27°
2026-04-26 17:10 -20.32752 18.92171 28378 ft 516 kts 27°
2026-04-26 17:10 -20.29587 18.93985 28487 ft 517 kts 27°
2026-04-26 17:10 -20.26414 18.95801 28591 ft 518 kts 27°
2026-04-26 17:10 -20.23237 18.97618 28697 ft 519 kts 27°
2026-04-26 17:11 -20.20043 18.99445 28822 ft 520 kts 27°
2026-04-26 17:11 -20.16854 19.01269 28927 ft 521 kts 27°
2026-04-26 17:11 -20.10469 19.04918 29138 ft 522 kts 27°
2026-04-26 17:12 -20.04060 19.08579 29334 ft 524 kts 27°
2026-04-26 17:12 -20.00851 19.10410 29434 ft 524 kts 27°
2026-04-26 17:13 -19.95499 19.13463 29607 ft 525 kts 27°
2026-04-26 17:13 -19.92279 19.15298 29708 ft 526 kts 27°
2026-04-26 17:13 -19.84717 19.19605 29939 ft 528 kts 27°
2026-04-26 17:14 -19.82578 19.20823 30002 ft 528 kts 27°
2026-04-26 17:14 -19.76093 19.24512 30187 ft 530 kts 27°
2026-04-26 17:14 -19.72851 19.26354 30278 ft 530 kts 27°
2026-04-26 17:15 -19.66340 19.30053 30476 ft 531 kts 27°
2026-04-26 17:15 -19.63077 19.31905 30577 ft 531 kts 27°
2026-04-26 17:16 -19.56558 19.35603 30784 ft 531 kts 27°
2026-04-26 17:16 -19.53301 19.37449 30938 ft 531 kts 27°
2026-04-26 17:16 -19.50052 19.39290 31075 ft 530 kts 27°
2026-04-26 17:16 -19.46807 19.41128 31230 ft 529 kts 27°
2026-04-26 17:17 -19.43557 19.42968 31418 ft 528 kts 27°
2026-04-26 17:17 -19.40326 19.44796 31576 ft 527 kts 27°
2026-04-26 17:17 -19.37082 19.46631 31717 ft 527 kts 27°
2026-04-26 17:17 -19.33850 19.48458 31889 ft 526 kts 27°
2026-04-26 17:18 -19.30634 19.50275 32067 ft 525 kts 27°
2026-04-26 17:18 -19.27407 19.52097 32228 ft 524 kts 27°
2026-04-26 17:18 -19.24192 19.53913 32379 ft 524 kts 27°
2026-04-26 17:18 -19.20973 19.55729 32557 ft 523 kts 27°
2026-04-26 17:19 -19.14570 19.59340 32928 ft 521 kts 27°
2026-04-26 17:19 -19.11413 19.61119 33100 ft 520 kts 27°
2026-04-26 17:19 -19.08223 19.62916 33290 ft 519 kts 27°
2026-04-26 17:20 -19.05038 19.64709 33483 ft 518 kts 27°
2026-04-26 17:20 -19.02885 19.65921 33618 ft 518 kts 27°
2026-04-26 17:20 -18.98681 19.68286 33881 ft 517 kts 27°
2026-04-26 17:20 -18.95509 19.70069 34082 ft 516 kts 27°
2026-04-26 17:21 -18.92351 19.71844 34265 ft 515 kts 27°
2026-04-26 17:21 -18.89193 19.73618 34428 ft 514 kts 27°
2026-04-26 17:21 -18.86035 19.75392 34594 ft 514 kts 27°
2026-04-26 17:21 -18.82874 19.77166 34757 ft 513 kts 27°
2026-04-26 17:22 -18.79726 19.78932 34955 ft 513 kts 27°
2026-04-26 17:22 -18.76575 19.80700 35118 ft 512 kts 27°
2026-04-26 17:22 -18.73426 19.82465 35293 ft 512 kts 27°
2026-04-26 17:22 -18.70286 19.84224 35456 ft 511 kts 27°
2026-04-26 17:23 -18.67151 19.85985 35658 ft 511 kts 27°
2026-04-26 17:23 -18.64013 19.87742 35809 ft 511 kts 27°
2026-04-26 17:23 -18.60878 19.89495 35973 ft 510 kts 26°
2026-04-26 17:23 -18.57752 19.91241 36153 ft 510 kts 26°
2026-04-26 17:24 -18.54614 19.92995 36331 ft 509 kts 26°
2026-04-26 17:24 -18.51477 19.94747 36480 ft 509 kts 26°
2026-04-26 17:24 -18.48353 19.96491 36647 ft 509 kts 26°
2026-04-26 17:24 -18.45226 19.98237 36814 ft 508 kts 26°
2026-04-26 17:25 -18.42101 19.99981 36987 ft 508 kts 26°
2026-04-26 17:25 -18.38975 20.01724 37028 ft 510 kts 26°
2026-04-26 17:25 -18.32681 20.05233 37031 ft 512 kts 27°
2026-04-26 17:26 -18.26396 20.08734 37035 ft 511 kts 27°
2026-04-26 17:26 -18.20112 20.12233 37030 ft 511 kts 27°
2026-04-26 17:27 -18.13819 20.15733 37029 ft 511 kts 27°
2026-04-26 17:27 -18.07535 20.19225 37028 ft 511 kts 27°
2026-04-26 17:28 -18.01255 20.22713 37028 ft 511 kts 27°
2026-04-26 17:28 -17.94967 20.26205 37029 ft 511 kts 27°
2026-04-26 17:29 -17.89795 20.29184 37027 ft 511 kts 31°
2026-04-26 17:29 -17.86053 20.32270 37029 ft 512 kts 44°
2026-04-26 17:29 -17.83595 20.34903 37030 ft 512 kts 46°
2026-04-26 17:30 -17.78763 20.40463 37029 ft 512 kts 48°
2026-04-26 17:30 -17.74015 20.46027 37031 ft 512 kts 47°
2026-04-26 17:31 -17.69265 20.51535 37033 ft 512 kts 47°
2026-04-26 17:31 -17.64471 20.57048 37031 ft 512 kts 47°
2026-04-26 17:32 -17.59668 20.62555 37033 ft 512 kts 47°
2026-04-26 17:32 -17.54863 20.68062 37030 ft 512 kts 47°
2026-04-26 17:33 -17.50062 20.73563 37032 ft 512 kts 47°
2026-04-26 17:34 -17.42856 20.81811 37033 ft 511 kts 47°
2026-04-26 17:34 -17.38057 20.87298 37031 ft 511 kts 47°
2026-04-26 17:35 -17.33257 20.92782 37031 ft 511 kts 47°
2026-04-26 17:35 -17.28452 20.98267 36998 ft 510 kts 47°
2026-04-26 17:36 -17.23680 21.03700 37028 ft 504 kts 47°
2026-04-26 17:36 -17.18951 21.09078 37027 ft 502 kts 47°
2026-04-26 17:37 -17.14219 21.14447 37027 ft 502 kts 47°
2026-04-26 17:37 -17.09488 21.19813 37030 ft 502 kts 47°
2026-04-26 17:38 -17.02393 21.27857 37029 ft 502 kts 47°
2026-04-26 17:38 -16.97657 21.33220 37031 ft 502 kts 47°
2026-04-26 17:39 -16.92927 21.38573 37026 ft 501 kts 47°
2026-04-26 17:39 -16.88234 21.43880 37027 ft 501 kts 47°
2026-04-26 17:40 -16.84265 21.48364 37027 ft 501 kts 47°
2026-04-26 17:40 -16.78769 21.54569 37026 ft 501 kts 47°
2026-04-26 17:41 -16.74035 21.59909 37026 ft 501 kts 47°
2026-04-26 17:41 -16.69311 21.65234 37024 ft 501 kts 47°
2026-04-26 17:42 -16.64576 21.70567 37025 ft 500 kts 47°
2026-04-26 17:42 -16.59845 21.75892 37025 ft 500 kts 47°
2026-04-26 17:43 -16.55118 21.81207 37028 ft 500 kts 47°
2026-04-26 17:43 -16.50390 21.86523 37029 ft 500 kts 48°
2026-04-26 17:44 -16.45824 21.91979 37029 ft 499 kts 51°
2026-04-26 17:44 -16.41418 21.97582 37025 ft 499 kts 51°
2026-04-26 17:45 -16.37002 22.03159 37025 ft 499 kts 51°
2026-04-26 17:45 -16.32545 22.08706 37026 ft 499 kts 51°
2026-04-26 17:46 -16.27903 22.14078 37028 ft 500 kts 47°
2026-04-26 17:46 -16.23136 22.19345 37025 ft 499 kts 47°
2026-04-26 17:47 -16.19963 22.22874 37025 ft 499 kts 48°
2026-04-26 17:47 -16.13691 22.29936 37026 ft 499 kts 48°
2026-04-26 17:48 -16.08988 22.35257 37026 ft 499 kts 48°
2026-04-26 17:48 -16.04293 22.40565 37026 ft 499 kts 48°
2026-04-26 17:49 -15.99589 22.45874 37025 ft 499 kts 48°
2026-04-26 17:49 -15.94889 22.51174 37027 ft 499 kts 48°
2026-04-26 17:50 -15.90185 22.56475 37023 ft 499 kts 48°
2026-04-26 17:50 -15.85485 22.61767 37023 ft 498 kts 48°
2026-04-26 17:51 -15.80779 22.67062 37024 ft 498 kts 48°
2026-04-26 17:51 -15.76075 22.72351 37020 ft 498 kts 48°
2026-04-26 17:52 -15.72168 22.76741 37019 ft 498 kts 48°
2026-04-26 17:52 -15.66706 22.82873 37021 ft 498 kts 48°
2026-04-26 17:53 -15.62014 22.88145 37022 ft 497 kts 49°
2026-04-26 17:54 -15.55910 22.95361 37021 ft 497 kts 50°
2026-04-26 17:54 -15.50655 23.01658 37019 ft 497 kts 50°
2026-04-26 17:55 -15.46111 23.07053 37018 ft 497 kts 50°
2026-04-26 17:55 -15.41561 23.12430 37016 ft 496 kts 50°
2026-04-26 17:56 -15.37004 23.17808 37016 ft 496 kts 50°
2026-04-26 17:57 -15.27903 23.28550 37013 ft 495 kts 50°
2026-04-26 17:57 -15.23354 23.33906 37014 ft 495 kts 50°
2026-04-26 17:58 -15.15032 23.43691 37017 ft 495 kts 50°
2026-04-26 17:59 -15.08200 23.51720 37015 ft 494 kts 50°
2026-04-26 17:59 -15.03657 23.57054 37016 ft 494 kts 50°
2026-04-26 18:00 -14.99113 23.62386 37017 ft 494 kts 50°
2026-04-26 18:00 -14.94571 23.67712 37014 ft 494 kts 50°
2026-04-26 18:01 -14.90032 23.73031 37017 ft 493 kts 50°
2026-04-26 18:01 -14.85489 23.78349 37015 ft 493 kts 50°
2026-04-26 18:02 -14.81719 23.82762 37014 ft 493 kts 50°
2026-04-26 18:02 -14.76418 23.88961 37016 ft 493 kts 50°
2026-04-26 18:03 -14.71878 23.94266 37014 ft 493 kts 50°
2026-04-26 18:03 -14.67334 23.99571 37017 ft 493 kts 50°
2026-04-26 18:04 -14.62796 24.04867 37018 ft 492 kts 50°
2026-04-26 18:05 -14.56014 24.12774 37025 ft 492 kts 50°
2026-04-26 18:05 -14.51476 24.18061 37030 ft 492 kts 50°
2026-04-26 18:06 -14.46938 24.23345 37030 ft 492 kts 50°
2026-04-26 18:06 -14.42396 24.28636 37032 ft 492 kts 50°
2026-04-26 18:07 -14.37852 24.33914 37033 ft 492 kts 50°
2026-04-26 18:07 -14.33307 24.39191 37031 ft 492 kts 50°
2026-04-26 18:08 -14.28769 24.44458 37034 ft 492 kts 50°
2026-04-26 18:08 -14.24227 24.49727 37034 ft 491 kts 50°
2026-04-26 18:09 -14.19682 24.54996 37035 ft 491 kts 50°
2026-04-26 18:09 -14.15141 24.60258 37033 ft 491 kts 51°
2026-04-26 18:10 -14.10598 24.65519 37038 ft 491 kts 51°
2026-04-26 18:10 -14.06063 24.70765 37038 ft 491 kts 51°
2026-04-26 18:11 -14.01523 24.76015 37039 ft 491 kts 51°
2026-04-26 18:11 -13.96978 24.81268 37036 ft 491 kts 51°
2026-04-26 18:12 -13.92467 24.86477 37036 ft 490 kts 51°
2026-04-26 18:12 -13.87926 24.91718 37038 ft 490 kts 51°
2026-04-26 18:13 -13.83356 24.96989 37038 ft 490 kts 51°
2026-04-26 18:13 -13.78844 25.02190 37040 ft 490 kts 51°
2026-04-26 18:14 -13.74302 25.07422 37042 ft 490 kts 51°
2026-04-26 18:14 -13.69761 25.12650 37038 ft 490 kts 51°
2026-04-26 18:15 -13.65222 25.17871 37040 ft 490 kts 51°
2026-04-26 18:15 -13.60688 25.23085 37045 ft 489 kts 51°
2026-04-26 18:16 -13.56148 25.28301 37046 ft 489 kts 51°
2026-04-26 18:16 -13.49345 25.36113 37045 ft 489 kts 51°
2026-04-26 18:17 -13.44807 25.41319 37048 ft 489 kts 51°
2026-04-26 18:17 -13.40273 25.46521 37051 ft 488 kts 51°
2026-04-26 18:18 -13.35745 25.51710 37051 ft 488 kts 51°
2026-04-26 18:18 -13.31205 25.56909 37053 ft 488 kts 51°